Regional Weather Roundup
Issued by NWS Goodland, KS

Home | Current Version | Previous Version | Graphics & Text | Print | Product List | Glossary On
Versions: 1 2 3 4 5 6 7 8 9 10 11 12 13 14 15 16 17 18 19 20 21 22 23 24 25 26 27 28 29 30 31 32 33 34 35 36 37 38 39 40 41 42 43 44 45 46 47 48 49 50
000
ASUS43 KGLD 201059
RWRGLD

GOODLAND FORECAST AREA HOURLY WEATHER ROUNDUP
NATIONAL WEATHER SERVICE GOODLAND KS
500 AM MDT SAT SEP 20 2014

...OFFICIAL OBSERVATIONS...

CITY           SKY/WX    TMP DP  RH WIND       PRES   REMARKS
GOODLAND KS    CLEAR     60  58  92 W10       30.00R
HILL CITY KS   CLEAR     67  61  81 SW10      29.91S
IMPERIAL NEB   CLEAR     61  55  81 N9        29.97R
MCCOOK NEB     CLEAR     65  61  87 W7        29.91R
AKRON CO       PTCLDY    60  53  77 W14       30.08R
BURLINGTON CO  CLEAR     60  57  89 NW9       30.03R
LIMON CO       CLEAR     55  48  77 W9        30.12R
$$

...UNOFFICIAL OBSERVATIONS...

CITY           SKY/WX    TMP DP  RH WIND       PRES   REMARKS
COLBY KS       CLEAR     63  63 100 SW8       29.96S
GOVE KS          N/A     68  32  26 MISG        N/A
NORTON KS      CLEAR     68  59  73 S9        29.89S
SHARON SPRINGS   N/A     61  59  94 SW6         N/A
WAKEENEY KS      N/A     66  58  76 MISG        N/A
TRENTON NEB      N/A     63  32  31 NW7         N/A
YUMA CO          N/A     62  50  66 W15         N/A
$$



USA.gov is the U.S. government's official web portal to all federal, state and local government web resources and services.